Regional Weather Roundup
Issued by NWS Cleveland, OH

Home | Current Version | Previous Version | Graphics & Text | Print | Product List | Glossary On
Versions: 1 2 3 4 5 6 7 8 9 10 11 12 13 14 15 16 17 18 19 20 21 22 23 24 25 26 27 28 29 30 31 32 33 34 35 36 37 38 39 40 41 42 43 44 45 46 47 48 49 50
000
ASUS41 KCLE 291410
RWRCLE
OHIO REGIONAL WEATHER ROUNDUP
NATIONAL WEATHER SERVICE WILMINGTON, OH
1000 AM EDT FRI MAY 29 2015

NOTE: "FAIR" INDICATES FEW OR NO CLOUDS BELOW 12,000 FEET WITH NO
SIGNIFICANT WEATHER AND/OR OBSTRUCTIONS TO VISIBILITY.

OHZ001>008-015>018-024>027-034-035-043-044-291500-
   NORTHWEST OHIO

CITY           SKY/WX    TMP DP  RH WIND       PRES   REMARKS
DEFIANCE       CLOUDY    72  65  78 S7        30.13S
FINDLAY        CLOUDY    70  67  90 SE7       30.13F FOG
TOLEDO EXPRESS CLOUDY    71  63  75 S7        30.13S
TOLEDO EXEC    CLOUDY    72  62  71 S10       30.14R
LIMA           CLOUDY    70  67  90 S5        30.15S
$$

OHZ009>014-019>023-028>033-038-089-291500-
   NORTHEAST OHIO

CITY           SKY/WX    TMP DP  RH WIND       PRES   REMARKS
CLE-HOPKINS    PTSUNNY   76  60  57 SE13      30.18F
CLE-LAKEFRONT  MOSUNNY   77  59  53 SE9       30.15F
CUY CO. ARPT   PTSUNNY   77  61  57 S12       30.18F
LORAIN-ELYRIA  PTSUNNY   74  60  61 S7        30.17F
ASHTABULA      SUNNY     73  58  59 S16       30.21F
AKRON-CANTON   PTSUNNY   74  59  59 S8        30.19F
WOOSTER        CLOUDY    72  62  71 S9        30.19F
MANSFIELD      CLOUDY    71  61  70 S13       30.18F
YOUNGSTOWN     MOSUNNY   73  58  59 SE10G16   30.21F
$$

OHZ042-051>053-060>062-070>072-077>081-291500-
  SOUTHWEST OHIO

CITY           SKY/WX    TMP DP  RH WIND       PRES   REMARKS
CINC-COVINGTON PTSUNNY   72  66  81 S9        30.16R
CINC-LUNKEN    PTSUNNY   72  68  87 S8        30.16R
HAMILTON       MOSUNNY   74  68  81 CALM      30.16R
DAYTON         CLOUDY    75  68  78 S12       30.16S
WRIGHT-PAT AFB MOSUNNY   74  67  79 S8        30.15S
DAYTON GENERAL MOSUNNY   73  67  81 S9        30.15S
WILMINGTON     MOSUNNY   75  65  70 S13       30.16S
$$

OHZ036-037-039>041-045>050-054>059-063>069-073>076-082>088-291500-
  CENTRAL AND SOUTHEAST OHIO

CITY           SKY/WX    TMP DP  RH WIND       PRES   REMARKS
COLUMBUS       PTSUNNY   74  64  71 S8        30.16F
OSU AIRPORT    PTSUNNY   76  65  68 S12       30.16F
BOLTON FIELD   MOSUNNY   75  66  73 S10       30.17F
RICKENBACK AFB PTSUNNY   73  66  77 S7        30.16F
NEWARK         CLOUDY    73  64  73 SE6       30.17F
MARION         CLOUDY    75  63  66 S13       30.16F
LANCASTER      PTSUNNY   74  65  73 VRB5      30.18S
ZANESVILLE     PTSUNNY   74  63  68 SE6       30.18F
NEW PHILLY     CLOUDY    73  61  65 CALM      30.20S
$$



USA.gov is the U.S. government's official web portal to all federal, state and local government web resources and services.